{"data":{"norad_id":65953,"epoch":"2026-05-25T00:13:36.664896Z","epoch_age_seconds":84898,"freshness":"FRESH","line1":"1 65953U 25228G   26145.00945214  .00003489  00000+0  48641-3 0  9999","line2":"2 65953  51.8995  18.0818 0000704 107.8735 252.2304 14.79930807 34604","mean_motion":14.79930807,"eccentricity":7.04e-5,"inclination_deg":51.8995,"raan_deg":18.0818,"arg_perigee_deg":107.8735,"mean_anomaly_deg":252.2304,"bstar":0.00048641,"rev_number":3460,"period_min":97.301846355848,"perigee_km":629.04921130066,"apogee_km":630.03589258157,"semimajor_km":7007.6795519411,"source":"CELESTRAK","updated_at":"2026-05-25T13:38:05.845797Z"}}